Погода в Глядени

Россия / Алтайский край     52°45′53″N   80°15′19″E
темп.,
°C
ветер,
м/с
пор.,
м/с
влажн.,
%
обл.,
%
осадки,
мм/ч
давл.,
гПа
погр.,
м
16 апреля, пт
пт1601:00+10юз45805 0.0 102154
04:00+8зюз338716 0.0 102028
07:00+7юз34916 0.0 102045
10:00+12зюз47735 0.0 1019393
13:00+17зюз68495 0.0 10171407
16:00+20з67370 0.0 10151985
19:00+19з58325 0.0 10141036
22:00+13зсз33455 0.0 101535
17 апреля, сб
сб1701:00+8с61093100 0.0 1016342
04:00+4ссв61086100 0.0 1018491
07:00+3ссв6978100 0.0 1020688
10:00+4св666420 0.0 1022833
13:00+6ссв55525 0.0 10211091
16:00+7с44465 0.0 10211332
19:00+6с44465 0.0 10221203
22:00+4с22575 0.0 102336
18 апреля, вс
вс1801:00+2св22645 0.0 102222
04:00+1ююз11660 0.0 102110
07:000ююз22680 0.0 102023
10:00+5юз464936 0.0 1019646
13:00+9юз683475 0.0 10161609
16:00+12зюз81234100 0.0 10122463
19:00+12юз7134217 0.0 10101880
22:00+9зюз6126782 0.1 1009517
19 апреля, пн
пн1901:00+8з81367100 0.1 10081139
04:00+3зсз9156395 0.0 10111162
07:00−4зсз91470100 0.0 1016983
10:00−2зсз91153100 0.0 10191396
13:000сз8945100 0.0 10221582
16:00+1сз7741100 0.0 10231804
19:00+1ссз664299 0.0 10241566
22:00−2ссз37565 0.0 1025280
20 апреля, вт
вт2001:00−2ссз365868 0.0 1025459
04:00−3с356567 0.1 1025435
07:00−4с4665100 0.1 1025626
10:00−2с6663100 0.2 10261343
13:000с5540100 0.4 10262008
16:00+1с6632100 0.1 10262355
19:00−1с6736100 0.1 10271807
22:00−3с49529 0.0 1028424